Location: Homewood
(41.1836°S, 175.9581°E)
Time: 11:21:09
(UTC+00:00)

Cosmos 883 Rocket - Pass Details

Date: 18 April 2024
Orbit: 949 x 995 km, 83.0° (Epoch: 24 May)

Event Time Altitude Azimuth Distance (km) Brightness Sun altitude
Rises 17:26:02 0° 348° (NNW) 3,635 7.4 -16.6°
Reaches altitude 10° 17:28:31 10° 345° (NNW) 2,703 6.7 -16.1°
Maximum altitude 17:34:41 71° 261° (W) 1,039 4.4 -15.0°
Drops below altitude 10° 17:41:02 10° 177° (S) 2,768 6.9 -13.8°
Sets 17:43:37 0° 174° (S) 3,729 7.6 -13.3°
